Find Starlink 11174

NORAD ID: 60409 Int'l Des: 2024-141 Owner: SPXS Country: US Constellation: starlink operational
LEOCIRCULAR

Current View

Loading 3D Globe...

About Starlink 11174

Starlink 11174 (NORAD 60409) is a starlink constellation satellite (v2 mini d2c) launched Aug 10, 2024 by SPXS of US. It operates in LEO, CIRCULAR orbit with a mass of 960.00 kg.

About Starlink 11174

Description loading...

Upcoming Passes

Passes for default location (London). Set your location on the main map for personalized predictions.

Altitude History

Loading altitude history...

Two-Line Element Set

1 60409U 24141M 26168.65169328 -.00013365 00000-0 -10539-3 0 9995
2 60409 53.1604 313.4401 0000932 60.8944 299.2167 15.69765210107399
Epoch: Jun 17, 2026 • Age: 16 hours

Current Status

Altitude 365.6 km
Velocity 7.70 km/s
Sub-Earth Point 53.14°N, 18°E
Launch Date Aug 10, 2024
Age 1.8 years
Type internet

Technical Details

Classification Payload
Mass 960.00 kg
Dry Mass 910.00 kg
Total Mass 960.00 kg
Length 0.30 m
Diameter 4.10 m
Span 29.00 m
Shape Box + pan
Manufacturer SPXS
Bus Type Starlink V2MD
Phase Status In Orbit
Owner/State SPXS/US

Most Searched